{"data":{"norad_id":67526,"epoch":"2026-09-20T12:28:38.673984Z","epoch_age_seconds":94990,"freshness":"FRESH","line1":"1 67526U 26013E   26263.51989206 -.00000091  00000+0  71110-4 0  9991","line2":"2 67526  50.0068  13.5744 0000736 105.5929 254.5025 13.29328400 32750","mean_motion":13.293284,"eccentricity":7.36e-5,"inclination_deg":50.0068,"raan_deg":13.5744,"arg_perigee_deg":105.5929,"mean_anomaly_deg":254.5025,"bstar":7.111e-5,"rev_number":3275,"period_min":108.3253769347,"perigee_km":1148.7434925247,"apogee_km":1149.8515308849,"semimajor_km":7527.4345117048,"source":"CELESTRAK","updated_at":"2026-09-21T09:00:16.680936Z"}}